WJA506 LPPT-LPPR

Flight info

Callsign WJA506
Flight time 0h 34m
Altitude 22000
Route IXIDA DCT DIGAL DCT ABLEG
Aircraft B738/M-SDE2E3FGHIRWXY/LB1

Departure

Time 2026-05-06 12:12
Airport Lisbon Humberto Delgado Airport (LPPT)

Arrival

Time 2026-05-06 12:46
Airport Francisco de Sá Carneiro Airport (LPPR)
Time Latitude Longitude Altitude Speed Heading
2026-05-06 11:30 38.76473 -9.13637 355 ft 0 kts 170°
2026-05-06 12:05 38.76482 -9.13639 346 ft 4 kts 170°
2026-05-06 12:06 38.76508 -9.13645 349 ft 4 kts 170°
2026-05-06 12:06 38.76533 -9.13650 351 ft 3 kts 175°
2026-05-06 12:06 38.76545 -9.13650 346 ft 2 kts 205°
2026-05-06 12:06 38.76553 -9.13640 346 ft 2 kts 262°
2026-05-06 12:07 38.76553 -9.13633 354 ft 0 kts 258°
2026-05-06 12:08 38.76553 -9.13634 354 ft 0 kts 258°
2026-05-06 12:08 38.76552 -9.13649 346 ft 5 kts 262°
2026-05-06 12:08 38.76545 -9.13691 346 ft 5 kts 257°
2026-05-06 12:09 38.76533 -9.13756 346 ft 8 kts 257°
2026-05-06 12:09 38.76521 -9.13832 346 ft 9 kts 258°
2026-05-06 12:09 38.76520 -9.13910 346 ft 9 kts 301°
2026-05-06 12:09 38.76567 -9.13960 352 ft 9 kts 296°
2026-05-06 12:10 38.76565 -9.14033 349 ft 9 kts 261°
2026-05-06 12:10 38.76557 -9.14116 349 ft 10 kts 271°
2026-05-06 12:10 38.76583 -9.14204 349 ft 0 kts 295°
2026-05-06 12:10 38.76589 -9.14220 351 ft 4 kts 295°
2026-05-06 12:11 38.76609 -9.14279 338 ft 11 kts 292°
2026-05-06 12:11 38.76646 -9.14371 335 ft 8 kts 313°
2026-05-06 12:11 38.76669 -9.14374 337 ft 4 kts 12°
2026-05-06 12:11 38.76730 -9.14345 339 ft 24 kts 22°
2026-05-06 12:12 38.77104 -9.14147 346 ft 91 kts 21°
2026-05-06 12:12 38.77873 -9.13736 343 ft 146 kts 20°
2026-05-06 12:12 38.78834 -9.13101 739 ft 162 kts 29°
2026-05-06 12:12 38.79773 -9.12345 1544 ft 156 kts 27°
2026-05-06 12:13 38.80718 -9.11639 2258 ft 158 kts 22°
2026-05-06 12:13 38.81778 -9.10914 2466 ft 188 kts 23°
2026-05-06 12:13 38.82992 -9.10208 2893 ft 199 kts 15°
2026-05-06 12:13 38.84367 -9.09583 3090 ft 223 kts 26°
2026-05-06 12:14 38.85765 -9.08498 3421 ft 242 kts 30°
2026-05-06 12:14 38.87247 -9.07334 3894 ft 256 kts 30°
2026-05-06 12:14 38.88765 -9.06157 4748 ft 252 kts 30°
2026-05-06 12:14 38.90219 -9.04910 5517 ft 253 kts 38°
2026-05-06 12:15 38.91545 -9.03421 6160 ft 260 kts 41°
2026-05-06 12:15 38.92903 -9.01802 6715 ft 271 kts 41°
2026-05-06 12:15 38.94287 -9.00145 7403 ft 276 kts 42°
2026-05-06 12:15 38.95702 -8.98460 8145 ft 278 kts 42°
2026-05-06 12:16 38.97137 -8.96758 8867 ft 284 kts 41°
2026-05-06 12:16 38.98607 -8.95025 9564 ft 290 kts 42°
2026-05-06 12:16 39.00106 -8.93263 10258 ft 295 kts 42°
2026-05-06 12:16 39.01675 -8.91423 10547 ft 317 kts 42°
2026-05-06 12:17 39.03362 -8.89448 10838 ft 336 kts 41°
2026-05-06 12:17 39.05114 -8.87394 11419 ft 344 kts 41°
2026-05-06 12:17 39.06895 -8.85309 12145 ft 347 kts 41°
2026-05-06 12:17 39.08693 -8.83201 12875 ft 352 kts 41°
2026-05-06 12:18 39.10523 -8.81053 13599 ft 358 kts 41°
2026-05-06 12:18 39.12367 -8.78889 14308 ft 362 kts 40°
2026-05-06 12:18 39.14248 -8.76683 14908 ft 368 kts 40°
2026-05-06 12:18 39.16147 -8.74454 15663 ft 371 kts 42°
2026-05-06 12:19 39.18019 -8.72130 16360 ft 376 kts 44°
2026-05-06 12:19 39.19758 -8.69644 17366 ft 371 kts 47°
2026-05-06 12:19 39.21417 -8.67157 18262 ft 371 kts 48°
2026-05-06 12:19 39.23097 -8.64617 18983 ft 373 kts 48°
2026-05-06 12:20 39.24764 -8.62107 19652 ft 361 kts 47°
2026-05-06 12:20 39.26372 -8.59703 19924 ft 346 kts 47°
2026-05-06 12:20 39.27963 -8.57343 19994 ft 356 kts 47°
2026-05-06 12:20 39.29641 -8.54870 20015 ft 374 kts 47°
2026-05-06 12:21 39.31367 -8.52328 19997 ft 376 kts 47°
2026-05-06 12:21 39.33084 -8.49797 19987 ft 373 kts 47°
2026-05-06 12:21 39.34787 -8.47286 19978 ft 369 kts 47°
2026-05-06 12:21 39.36483 -8.44787 19992 ft 370 kts 47°
2026-05-06 12:22 39.38184 -8.42277 19996 ft 372 kts 47°
2026-05-06 12:22 39.39889 -8.39761 19999 ft 373 kts 47°
2026-05-06 12:22 39.41598 -8.37236 19988 ft 374 kts 47°
2026-05-06 12:22 39.43288 -8.34736 19989 ft 374 kts 47°
2026-05-06 12:23 39.45000 -8.32203 19989 ft 373 kts 47°
2026-05-06 12:23 39.46710 -8.29670 19983 ft 373 kts 47°
2026-05-06 12:23 39.48415 -8.27143 19981 ft 373 kts 47°
2026-05-06 12:23 39.50119 -8.24615 19988 ft 372 kts 47°
2026-05-06 12:24 39.51819 -8.22090 19989 ft 372 kts 47°
2026-05-06 12:24 39.53518 -8.19566 19985 ft 372 kts 47°
2026-05-06 12:24 39.55215 -8.17043 19980 ft 371 kts 47°
2026-05-06 12:24 39.56911 -8.14518 19987 ft 371 kts 47°
2026-05-06 12:25 39.58606 -8.11993 19979 ft 371 kts 47°
2026-05-06 12:25 39.60302 -8.09465 19982 ft 371 kts 47°
2026-05-06 12:25 39.61994 -8.06942 19986 ft 370 kts 47°
2026-05-06 12:25 39.63815 -8.04597 19962 ft 368 kts 32°
2026-05-06 12:26 39.66114 -8.03270 19986 ft 361 kts
2026-05-06 12:26 39.68567 -8.02998 19988 ft 356 kts 352°
2026-05-06 12:26 39.70975 -8.03637 19994 ft 352 kts 342°
2026-05-06 12:26 39.73335 -8.04523 19984 ft 353 kts 340°
2026-05-06 12:27 39.75686 -8.05456 19992 ft 354 kts 340°
2026-05-06 12:27 39.78041 -8.06397 19987 ft 354 kts 340°
2026-05-06 12:27 39.80407 -8.07337 19979 ft 355 kts 340°
2026-05-06 12:27 39.82775 -8.08267 19980 ft 355 kts 341°
2026-05-06 12:28 39.84344 -8.08879 19981 ft 356 kts 341°
2026-05-06 12:28 39.87517 -8.10109 19990 ft 356 kts 341°
2026-05-06 12:28 39.89894 -8.11027 19980 ft 356 kts 341°
2026-05-06 12:28 39.92269 -8.11941 19979 ft 356 kts 341°
2026-05-06 12:29 39.94643 -8.12856 19981 ft 355 kts 341°
2026-05-06 12:29 39.96983 -8.13757 19986 ft 355 kts 341°
2026-05-06 12:29 39.99349 -8.14668 19988 ft 354 kts 341°
2026-05-06 12:29 40.01708 -8.15578 19985 ft 354 kts 341°
2026-05-06 12:30 40.04066 -8.16487 19980 ft 353 kts 341°
2026-05-06 12:30 40.06421 -8.17397 19989 ft 352 kts 341°
2026-05-06 12:30 40.08772 -8.18305 19985 ft 353 kts 341°
2026-05-06 12:30 40.11123 -8.19213 19986 ft 351 kts 341°
2026-05-06 12:31 40.13426 -8.20104 19972 ft 339 kts 341°
2026-05-06 12:31 40.14923 -8.20683 19795 ft 338 kts 341°
2026-05-06 12:31 40.17915 -8.21840 19485 ft 333 kts 341°
2026-05-06 12:31 40.19391 -8.22411 19271 ft 332 kts 341°
2026-05-06 12:32 40.21598 -8.23267 18954 ft 330 kts 341°
2026-05-06 12:32 40.23796 -8.24121 18633 ft 328 kts 341°
2026-05-06 12:32 40.25979 -8.24970 18299 ft 327 kts 341°
2026-05-06 12:32 40.28127 -8.25805 17941 ft 326 kts 341°
2026-05-06 12:33 40.30299 -8.26651 17572 ft 324 kts 341°
2026-05-06 12:33 40.32457 -8.27490 17230 ft 322 kts 342°
2026-05-06 12:33 40.34598 -8.28324 16902 ft 320 kts 342°
2026-05-06 12:33 40.36723 -8.29153 16576 ft 318 kts 342°
2026-05-06 12:34 40.38842 -8.29979 16249 ft 316 kts 342°
2026-05-06 12:34 40.40946 -8.30800 15924 ft 315 kts 342°
2026-05-06 12:34 40.43040 -8.31617 15599 ft 313 kts 342°
2026-05-06 12:34 40.45118 -8.32429 15284 ft 311 kts 342°
2026-05-06 12:35 40.47193 -8.33241 14966 ft 310 kts 342°
2026-05-06 12:35 40.49256 -8.34048 14650 ft 309 kts 342°
2026-05-06 12:35 40.51312 -8.34852 14343 ft 307 kts 342°
2026-05-06 12:35 40.53359 -8.35654 14030 ft 306 kts 341°
2026-05-06 12:36 40.55397 -8.36453 13700 ft 305 kts 341°
2026-05-06 12:36 40.57430 -8.37252 13356 ft 304 kts 342°
2026-05-06 12:36 40.59424 -8.38033 13026 ft 302 kts 342°
2026-05-06 12:36 40.61434 -8.38823 12707 ft 301 kts 342°
2026-05-06 12:37 40.63433 -8.39608 12387 ft 299 kts 342°
2026-05-06 12:37 40.65420 -8.40390 12069 ft 297 kts 342°
2026-05-06 12:37 40.67398 -8.41168 11750 ft 295 kts 343°
2026-05-06 12:37 40.69363 -8.41942 11446 ft 294 kts 342°
2026-05-06 12:38 40.71315 -8.42711 11131 ft 292 kts 343°
2026-05-06 12:38 40.73236 -8.43586 10743 ft 294 kts 335°
2026-05-06 12:38 40.75071 -8.44807 10309 ft 296 kts 332°
2026-05-06 12:38 40.76888 -8.46120 9902 ft 299 kts 331°
2026-05-06 12:39 40.78720 -8.47447 9328 ft 304 kts 332°
2026-05-06 12:39 40.80606 -8.48793 8679 ft 311 kts 332°
2026-05-06 12:39 40.82537 -8.50155 8069 ft 317 kts 333°
2026-05-06 12:39 40.84472 -8.51508 7786 ft 311 kts 333°
2026-05-06 12:40 40.86372 -8.52830 7440 ft 305 kts 333°
2026-05-06 12:40 40.88200 -8.54100 7034 ft 298 kts 333°
2026-05-06 12:40 40.90017 -8.55361 6593 ft 292 kts 333°
2026-05-06 12:40 40.91804 -8.56602 6153 ft 288 kts 333°
2026-05-06 12:41 40.93555 -8.57817 5780 ft 281 kts 333°
2026-05-06 12:41 40.95261 -8.59000 5452 ft 273 kts 333°
2026-05-06 12:41 40.96920 -8.60150 5141 ft 266 kts 333°
2026-05-06 12:41 40.98549 -8.61234 4841 ft 258 kts 339°
2026-05-06 12:42 41.00269 -8.61776 4542 ft 251 kts 351°
2026-05-06 12:42 41.01967 -8.62177 4241 ft 245 kts 349°
2026-05-06 12:42 41.03623 -8.62596 3936 ft 240 kts 349°
2026-05-06 12:42 41.05241 -8.63018 3674 ft 235 kts 349°
2026-05-06 12:43 41.06846 -8.63437 3412 ft 235 kts 349°
2026-05-06 12:43 41.08455 -8.63854 3143 ft 234 kts 349°
2026-05-06 12:43 41.10028 -8.64261 2902 ft 227 kts 349°
2026-05-06 12:43 41.11565 -8.64661 2602 ft 224 kts 348°
2026-05-06 12:44 41.13066 -8.65052 2340 ft 216 kts 348°
2026-05-06 12:44 41.14519 -8.65432 2037 ft 209 kts 348°
2026-05-06 12:44 41.15913 -8.65796 1761 ft 198 kts 348°
2026-05-06 12:44 41.17214 -8.66135 1486 ft 186 kts 348°
2026-05-06 12:45 41.18418 -8.66450 1306 ft 164 kts 347°
2026-05-06 12:45 41.19481 -8.66728 1062 ft 147 kts 347°
2026-05-06 12:45 41.21465 -8.67248 686 ft 140 kts 345°
2026-05-06 12:46 41.22421 -8.67539 547 ft 138 kts 348°
2026-05-06 12:46 41.23343 -8.67738 270 ft 132 kts 347°
2026-05-06 12:46 41.24160 -8.67957 213 ft 97 kts 348°
2026-05-06 12:46 41.24607 -8.68077 206 ft 34 kts 349°
2026-05-06 12:47 41.24840 -8.68139 201 ft 35 kts 348°
2026-05-06 12:47 41.25106 -8.68174 183 ft 38 kts
2026-05-06 12:47 41.25279 -8.68100 178 ft 15 kts 39°
2026-05-06 12:47 41.25273 -8.68018 181 ft 9 kts 155°
2026-05-06 12:48 41.25257 -8.68012 181 ft 0 kts 166°
2026-05-06 12:48 41.25254 -8.68011 182 ft 4 kts 166°
2026-05-06 12:48 41.25176 -8.67990 186 ft 18 kts 169°
2026-05-06 12:48 41.25052 -8.67960 195 ft 17 kts 170°
2026-05-06 12:49 41.24940 -8.67934 194 ft 15 kts 170°
2026-05-06 12:49 41.24851 -8.67893 199 ft 12 kts 154°
2026-05-06 12:49 41.24773 -8.67842 204 ft 13 kts 153°
2026-05-06 12:49 41.24684 -8.67807 209 ft 14 kts 167°
2026-05-06 12:50 41.24582 -8.67776 220 ft 16 kts 167°
2026-05-06 12:50 41.24471 -8.67743 222 ft 17 kts 167°
2026-05-06 12:50 41.24354 -8.67715 227 ft 18 kts 171°
2026-05-06 12:50 41.24261 -8.67631 234 ft 15 kts 126°
2026-05-06 12:51 41.24208 -8.67534 238 ft 12 kts 126°
2026-05-06 12:51 41.24145 -8.67468 240 ft 12 kts 152°
2026-05-06 12:51 41.24057 -8.67425 241 ft 15 kts 168°
2026-05-06 12:51 41.23952 -8.67453 239 ft 17 kts 217°
2026-05-06 12:52 41.23842 -8.67480 238 ft 16 kts 170°
2026-05-06 12:52 41.23741 -8.67430 238 ft 15 kts 134°
2026-05-06 12:52 41.23681 -8.67341 241 ft 9 kts 121°
2026-05-06 12:52 41.23682 -8.67287 244 ft 4 kts 81°
2026-05-06 12:53 41.23687 -8.67254 244 ft 1 kts 79°
2026-05-06 12:53 41.23687 -8.67251 244 ft 0 kts 79°